Location: Songkhla
(7.2000°N, 100.6000°E)
Time: 20:54:28
(UTC+07:00)

PSLV R/B - Pass Details

Date: 16 April 2026
Orbit: 559 x 585 km, 98.0° (Epoch: 20 May)

Event Time Altitude Azimuth Distance (km) Brightness Sun altitude
Exits shadow 19:42:32 18° 171° (S) 1,410 5.2 -19.4°
Maximum altitude 19:45:28 83° 259° (WSW) 572 3.3 -20.1°
Drops below altitude 10° 19:49:30 10° 347° (NNW) 1,862 6.3 -21.1°
Sets 19:51:39 0° 347° (NNW) 2,762 7.3 -21.6°
